EW2827 Weather Reports


time (UTC)temp
F
wind
direction
speed
knots
gust
knots
rain 1hr
in
rain 24hr
in
rain mn
in
humidity
%
barometer
mb
20260831035739 73 116 1.7 3.5 0.00 0.00 0.00 66 1012.0
20260831034739 73 71 1.7 7.0 0.00 0.00 0.00 65 1012.1
20260831033724 73 100 1.7 4.3 0.00 0.00 0.00 64 1012.2
20260831032744 73 46 0.9 4.3 0.00 0.00 0.00 64 1012.3
20260831031735 73 113 0.9 5.2 0.00 0.00 0.00 64 1012.4
20260831030725 73 72 1.7 4.3 0.00 0.00 0.00 63 1012.4
20260831025736 73 102 1.7 5.2 0.00 0.00 0.00 62 1012.5
20260831024725 73 143 0.9 3.5 0.00 0.00 0.00 62 1012.6
20260831023723 73 28 0.9 3.5 0.00 0.00 0.00 60 1012.7
20260831022741 73 189 0.9 4.3 0.00 0.00 0.00 58 1012.9
20260831021725 73 66 0.9 4.3 0.00 0.00 0.00 60 1013.0
20260831020728 72 129 0.9 6.1 0.00 0.00 0.00 59 1013.1
20260831015723 72 217 0.9 2.6 0.00 0.00 0.00 56 1013.3
20260831014727 72 148 0.0 1.7 0.00 0.00 0.00 56 1013.6
20260831013722 71 207 1.7 4.3 0.00 0.00 0.00 58 1013.8
20260831012722 70 192 0.9 3.5 0.00 0.00 0.00 60 1014.0
20260831012227 69 147 0.9 2.6 0.00 0.00 0.00 60 1014.0
20260831010737 69 145 0.9 2.6 0.00 0.00 0.00 62 1014.2
20260831005717 69 293 0.0 1.7 0.00 0.00 0.00 63 1014.2
20260831004722 67 62 0.9 3.5 0.00 0.00 0.00 64 1014.3
20260831004222 66 257 0.0 2.6 0.00 0.00 0.00 69 1014.5
20260831002722 65 308 1.7 3.5 0.00 0.00 0.00 70 1014.4
20260831001728 64 296 0.0 2.6 0.00 0.00 0.00 72 1014.4
20260831000726 62 294 0.9 3.5 0.00 0.00 0.00 79 1014.4
20260831000229 61 48 0.9 3.5 0.00 0.00 0.00 88 1014.4
20260830234721 59 21 0.9 3.5 0.00 0.00 0.00 94 1014.4
20260830233716 57 351 1.7 3.5 0.00 0.00 0.00 97 1014.4
20260830232720 56 42 0.9 3.5 0.00 0.00 0.00 97 1014.4
20260830231709 56 193 0.0 2.6 0.00 0.00 0.00 97 1014.5
20260830230708 55 193 0.0 0.9 0.00 0.00 0.00 97 1014.5
20260830225726 54 193 0.9 2.6 0.00 0.00 0.00 97 1014.6
20260830224713 53 252 0.0 0.9 0.00 0.00 0.00 97 1014.5
20260830223705 52 252 0.0 0.9 0.00 0.00 0.00 96 1014.6
20260830222705 51 292 0.0 0.9 0.00 0.00 0.00 96 1014.6
20260830221704 51 292 0.0 1.7 0.00 0.00 0.00 96 1014.5
20260830220714 51 35 0.0 0.9 0.00 0.00 0.00 96 1014.4
20260830215707 50 35 0.0 1.7 0.00 0.00 0.00 96 1014.4
20260830214719 50 35 0.9 2.6 0.00 0.00 0.00 96 1014.3
20260830213726 50 34 0.9 3.5 0.00 0.00 0.00 96 1014.2
20260830213212 50 30 1.7 2.6 0.00 0.00 0.00 96 1014.1
20260830211717 49 30 1.7 3.5 0.00 0.00 0.00 96 1014.1
20260830211706 50 34 1.7 3.5 0.00 0.00 0.00 96 1014.2
20260830205658 49 40 1.7 3.5 0.00 0.00 0.00 96 1014.0
20260830204700 49 34 1.7 2.6 0.00 0.00 0.00 96 1013.9
20260830203703 49 35 1.7 2.6 0.00 0.00 0.00 95 1013.7
20260830202714 49 33 0.9 3.5 0.00 0.00 0.00 96 1013.7
20260830201717 49 27 1.7 2.6 0.00 0.00 0.00 96 1013.6
20260830201218 49 30 0.9 2.6 0.00 0.00 0.00 95 1013.6
20260830195707 49 37 0.0 1.7 0.00 0.00 0.00 95 1013.5
20260830194702 49 37 0.0 0.0 0.00 0.00 0.00 95 1013.4
20260830193714 49 37 0.0 0.9 0.00 0.00 0.00 95 1013.2
20260830193200 49 37 0.0 0.0 0.00 0.00 0.00 95 1013.1
20260830191655 49 37 0.9 2.6 0.00 0.00 0.00 95 1012.9
20260830190656 49 34 1.7 2.6 0.00 0.00 0.00 95 1012.8
20260830185700 49 40 1.7 3.5 0.00 0.00 0.00 95 1012.8
20260830184702 49 40 2.6 3.5 0.00 0.00 0.00 95 1012.8
20260830183708 49 37 2.6 4.3 0.00 0.00 0.00 95 1012.8
20260830182707 50 44 3.5 4.3 0.00 0.00 0.00 95 1012.9
20260830181712 51 20 2.6 3.5 0.00 0.00 0.00 95 1013.1
20260830180648 50 22 2.6 3.5 0.00 0.00 0.00 95 1013.1
20260830175703 50 22 3.5 4.3 0.00 0.00 0.00 95 1013.0
20260830174657 50 22 2.6 3.5 0.00 0.00 0.00 95 1013.1
20260830173701 50 17 2.6 3.5 0.00 0.00 0.00 95 1013.2
20260830172703 49 19 3.5 4.3 0.00 0.00 0.00 94 1013.2
20260830172153 50 17 2.6 4.3 0.00 0.00 0.00 94 1013.2
20260830170652 51 37 0.0 1.7 0.00 0.00 0.00 95 1013.4
20260830170210 51 37 0.0 1.7 0.00 0.00 0.00 95 1013.4
20260830163700 51 37 1.7 2.6 0.00 0.00 0.00 95 1013.3
20260830162659 51 37 0.9 2.6 0.00 0.00 0.00 95 1013.3
20260830161650 51 37 1.7 2.6 0.00 0.00 0.00 95 1013.4
20260830160649 51 37 1.7 2.6 0.00 0.00 0.00 95 1013.6
20260830160156 50 37 1.7 3.5 0.00 0.00 0.00 94 1013.6
20260830154719 50 16 1.7 3.5 0.00 0.00 0.00 94 1013.6
20260830153657 50 25 1.7 3.5 0.00 0.00 0.00 94 1013.7
20260830152704 50 26 2.6 3.5 0.00 0.00 0.00 94 1013.7
20260830151650 50 22 2.6 3.5 0.00 0.00 0.00 94 1013.7
20260830151154 50 31 2.6 3.5 0.00 0.00 0.00 94 1013.7
20260830145649 50 32 1.7 2.6 0.00 0.00 0.00 93 1013.8
20260830144643 50 32 1.7 2.6 0.00 0.00 0.00 93 1013.9
20260830143647 50 32 1.7 2.6 0.00 0.00 0.00 93 1013.8
20260830142649 50 32 1.7 2.6 0.00 0.00 0.00 93 1013.9
20260830141655 51 32 1.7 3.5 0.00 0.00 0.00 93 1013.9
20260830140646 51 35 0.0 1.7 0.00 0.00 0.00 93 1013.8
20260830140137 51 35 0.0 0.9 0.00 0.00 0.00 93 1013.9
20260830134649 51 35 0.9 1.7 0.00 0.00 0.00 93 1013.9
20260830134152 51 35 0.0 0.0 0.00 0.00 0.00 93 1013.8
20260830133139 51 35 0.0 0.0 0.00 0.00 0.00 93 1013.8
20260830132646 51 35 0.0 0.0 0.00 0.00 0.00 93 1013.8
20260830131631 51 35 0.9 1.7 0.00 0.00 0.00 93 1013.9
20260830130635 51 35 0.0 0.0 0.00 0.00 0.00 93 1013.8
20260830125643 51 35 0.0 0.9 0.00 0.00 0.00 93 1013.8
20260830124635 51 35 0.0 1.7 0.00 0.00 0.00 93 1013.9
20260830123627 51 35 0.0 0.9 0.00 0.00 0.00 93 1013.7
20260830122632 52 35 1.7 2.6 0.00 0.00 0.00 93 1013.6
20260830121627 52 33 0.9 2.6 0.00 0.00 0.00 92 1013.6
20260830120632 52 34 1.7 2.6 0.00 0.00 0.00 93 1013.6
20260830115629 52 30 1.7 2.6 0.00 0.00 0.00 92 1013.6
20260830115142 52 30 2.6 2.6 0.00 0.00 0.00 92 1013.6
20260830114131 53 30 0.9 2.6 0.00 0.00 0.00 92 1013.7
20260830112626 53 30 0.9 1.7 0.00 0.00 0.00 92 1013.6
20260830111629 53 30 0.9 1.7 0.00 0.00 0.00 91 1013.6
20260830110631 53 30 0.0 1.7 0.00 0.00 0.00 91 1013.6
20260830105625 53 30 0.0 1.7 0.00 0.00 0.00 90 1013.5
20260830105125 53 30 0.0 2.6 0.00 0.00 0.00 90 1013.3
20260830103626 53 30 0.0 0.9 0.00 0.00 0.00 90 1013.3
20260830102622 54 30 0.0 0.9 0.00 0.00 0.00 90 1013.1
20260830101632 54 30 1.7 2.6 0.00 0.00 0.00 89 1013.2
20260830100621 54 17 0.9 1.7 0.00 0.00 0.00 89 1013.2
20260830095622 54 17 0.9 1.7 0.00 0.00 0.00 88 1013.0
20260830094625 55 17 0.0 1.7 0.00 0.00 0.00 87 1012.9
20260830093621 55 17 0.9 2.6 0.00 0.00 0.00 86 1012.9
20260830092623 56 17 0.0 0.9 0.00 0.00 0.00 85 1012.9
20260830091621 56 17 0.0 1.7 0.00 0.00 0.00 84 1012.8
20260830090629 57 17 0.9 2.6 0.00 0.00 0.00 84 1012.8
20260830085613 58 17 0.0 1.7 0.00 0.00 0.00 82 1012.8
20260830084615 58 18 0.9 3.5 0.00 0.00 0.00 82 1012.6
20260830083611 58 32 0.0 1.7 0.00 0.00 0.00 81 1012.4
20260830082629 59 32 0.0 0.0 0.00 0.00 0.00 81 1012.4
20260830082122 60 32 0.0 1.7 0.00 0.00 0.00 78 1012.3
20260830080628 60 32 0.0 0.9 0.00 0.00 0.00 76 1012.2
20260830075630 61 32 0.0 1.7 0.00 0.00 0.00 75 1012.2
20260830074628 62 56 0.9 1.7 0.00 0.00 0.00 73 1012.0
20260830073632 63 42 0.9 2.6 0.00 0.00 0.00 71 1012.0
20260830072625 64 60 0.0 2.6 0.00 0.00 0.00 69 1012.0
20260830071629 66 40 0.0 0.9 0.00 0.00 0.00 68 1012.0
20260830070607 67 40 0.0 2.6 0.00 0.00 0.00 67 1012.0
20260830070137 68 44 0.9 1.7 0.00 0.00 0.00 66 1011.9
20260830064623 69 73 0.9 3.5 0.00 0.00 0.00 66 1011.9
20260830063616 69 28 0.9 2.6 0.00 0.00 0.00 66 1012.0
20260830062627 69 165 0.0 1.7 0.00 0.00 0.00 66 1011.9
20260830061629 69 117 0.9 5.2 0.00 0.00 0.00 65 1011.9
20260830060624 69 118 1.7 7.0 0.00 0.00 0.00 64 1011.9
20260830055618 69 109 1.7 3.5 0.00 0.00 0.00 64 1011.9
20260830054619 69 111 1.7 7.8 0.00 0.00 0.00 62 1012.0
20260830053631 69 98 1.7 6.1 0.00 0.00 0.00 62 1012.0
20260830052610 69 130 1.7 5.2 0.00 0.00 0.00 63 1012.0
20260830051612 70 100 2.6 5.2 0.00 0.00 0.00 63 1012.1
20260830050624 70 144 1.7 6.1 0.00 0.00 0.00 64 1012.1
20260830045636 70 111 2.6 5.2 0.00 0.00 0.00 64 1012.1
20260830044612 71 132 1.7 5.2 0.00 0.00 0.00 64 1012.1
20260830043617 71 166 2.6 5.2 0.00 0.00 0.00 62 1012.1
20260830042614 72 105 1.7 7.8 0.00 0.00 0.00 62 1012.1
20260830041608 72 118 1.7 5.2 0.00 0.00 0.00 60 1012.1
20260830040611 71 123 3.5 7.8 0.00 0.00 0.00 60 1012.1